This demonstration page uses our WeatherBlox Daily Observations layout. Learn more.

Left ArrowRight Arrow

Hourly Observations for December 25, 2019

Temp ( °F °C ) Dew Point ( °F °C ) Humidity (%) Winds ( mph kmh ) Pressure ( in mb ) Visibility ( mi km ) Precip ( " mm )
12:53 am 00:53 Cloudy 27 -2.8 25 -3.9 92 92 Calm 29.80 1009 9 14 0.00 0.00
1:19 am 01:19 Cloudy 28 -2.2 26 -3.3 92 92 Calm 29.83 1010 9 14 0.00 0.00
1:53 am 01:53 Cloudy 28 -2.2 26 -3.3 92 92 Calm 29.80 1009 10 16 0.00 0.00
2:15 am 02:15 Cloudy 28 -2.2 26 -3.3 92 92 Calm 29.84 1011 10 16 0.00 0.00
2:53 am 02:53 Cloudy 28 -2.2 26 -3.3 92 92 W 5 7 29.81 1010 10 16 0.00 0.00
3:38 am 03:38 Cloudy 29 -1.7 27 -2.8 92 92 W 8 13 29.86 1011 10 16 0.00 0.00
3:49 am 03:49 Cloudy 28 -2 27 -3 93 93 W 7 11 29.86 1011 10 16 0.00 0.00
3:53 am 03:53 Cloudy 29 -1.7 26 -3.3 89 89 W 9 15 29.83 1010 10 16 0.00 0.00
4:15 am 04:15 Cloudy 29 -1.7 26 -3.3 89 89 W 8 13 29.86 1011 10 16 0.00 0.00
4:53 am 04:53 Cloudy 28 -2.2 26 -3.3 92 92 WSW 10 17 29.84 1010 10 16 0.00 0.00
5:53 am 05:53 Cloudy 28 -2.2 26 -3.3 92 92 WSW 7 11 29.85 1011 10 16 0.00 0.00
6:53 am 06:53 Cloudy 28 -2.2 25 -3.9 88 88 W 7 11 29.86 1011 10 16 0.00 0.00
7:53 am 07:53 Cloudy 27 -2.8 25 -3.9 92 92 W 8 13 29.87 1012 10 16 0.00 0.00
8:53 am 08:53 Cloudy 27 -2.8 25 -3.9 92 92 W 10 17 29.90 1013 10 16 0.00 0.00
9:19 am 09:19 Cloudy 26 -3.3 24 -4.4 92 92 WSW 12 19 29.96 1014 10 16 0.00 0.00
9:53 am 09:53 Cloudy 26 -3.3 25 -3.9 96 96 WSW 14 22 29.93 1013 10 16 0.00 0.00
10:53 am 10:53 Cloudy 26 -3.3 25 -3.9 96 96 WSW 13 20 29.94 1014 10 16 0.00 0.00
11:53 am 11:53 Cloudy 27 -2.8 25 -3.9 92 92 SW 16 26 29.94 1014 10 16 0.00 0.00
12:11 pm 12:11 Cloudy 28 -2.2 26 -3.3 92 92 SW 14 22 29.97 1015 10 16 0.00 0.00
12:38 pm 12:38 Partly Cloudy 29 -1.7 26 -3.3 89 89 SW 18 30 29.97 1015 10 16 0.00 0.00
12:53 pm 12:53 Mostly Sunny 29 -1.7 26 -3.3 89 89 SW 17 28 29.93 1014 10 16 0.00 0.00
1:53 pm 13:53 Mostly Sunny 30 -1.1 26 -3.3 85 85 WSW 17 28 29.94 1014 10 16 0.00 0.00
2:53 pm 14:53 Sunny 30 -1.1 25 -3.9 82 82 SW 14 22 29.96 1015 10 16 0.00 0.00
3:53 pm 15:53 Sunny 28 -2.2 25 -3.9 88 88 SW 14 22 29.99 1016 10 16 0.00 0.00
4:53 pm 16:53 Clear 25 -3.9 23 -5 92 92 WSW 10 17 30.03 1017 10 16 0.00 0.00
5:53 pm 17:53 Clear 22 -5.6 20 -6.7 92 92 SW 8 13 30.04 1017 10 16 0.00 0.00
6:53 pm 18:53 Clear 20 -6.7 18 -7.8 92 92 WSW 7 11 30.06 1018 10 16 0.00 0.00
7:53 pm 19:53 Clear 20 -6.7 18 -7.8 92 92 WSW 7 11 30.07 1018 10 16 0.00 0.00
8:53 pm 20:53 Clear 20 -6.7 18 -7.8 92 92 W 7 11 30.08 1019 10 16 0.00 0.00
9:53 pm 21:53 Clear 17 -8.3 14 -10 88 88 WSW 8 13 30.10 1019 10 16 0.00 0.00
10:53 pm 22:53 Clear 17 -8.3 15 -9.4 92 92 SW 9 15 30.12 1020 10 16 0.00 0.00
11:53 pm 23:53 Clear 16 -8.9 13 -10.6 88 88 WSW 7 11 30.14 1021 10 16 0.00 0.00

Powered by AerisWeather